TAP1686 LPMA-LPPT

Flight info

Callsign TAP1686
Flight time 1h 22m
Altitude 36000
Route DEGUN DCT NARTA DCT ESUTI
Aircraft A21N/M-SDE2E3FGHIRWXY/LB1

Departure

Time 2026-05-06 16:19
Airport Cristiano Ronaldo International Airport (LPMA)

Arrival

Time 2026-05-06 17:41
Airport Lisbon Humberto Delgado Airport (LPPT)
Time Latitude Longitude Altitude Speed Heading
2026-05-06 15:18 32.69413 -16.77592 175 ft 0 kts 138°
2026-05-06 15:19 32.69414 -16.77592 175 ft 0 kts 138°
2026-05-06 15:22 32.69414 -16.77593 175 ft 0 kts 138°
2026-05-06 15:32 32.69415 -16.77593 175 ft 0 kts 138°
2026-05-06 15:35 32.69415 -16.77594 175 ft 0 kts 138°
2026-05-06 15:47 32.69416 -16.77594 175 ft 0 kts 139°
2026-05-06 15:48 32.69416 -16.77595 175 ft 0 kts 139°
2026-05-06 15:59 32.69417 -16.77595 175 ft 0 kts 139°
2026-05-06 15:59 32.69417 -16.77596 175 ft 0 kts 139°
2026-05-06 16:07 32.69437 -16.77614 175 ft 4 kts 151°
2026-05-06 16:08 32.69461 -16.77624 175 ft 4 kts 178°
2026-05-06 16:08 32.69482 -16.77617 175 ft 2 kts 225°
2026-05-06 16:08 32.69484 -16.77616 175 ft 1 kts 226°
2026-05-06 16:12 32.69484 -16.77615 175 ft 0 kts 226°
2026-05-06 16:13 32.69484 -16.77616 175 ft 1 kts 226°
2026-05-06 16:13 32.69474 -16.77627 175 ft 3 kts 226°
2026-05-06 16:14 32.69451 -16.77656 175 ft 6 kts 226°
2026-05-06 16:14 32.69413 -16.77703 175 ft 10 kts 226°
2026-05-06 16:14 32.69360 -16.77768 175 ft 12 kts 226°
2026-05-06 16:14 32.69298 -16.77848 175 ft 14 kts 238°
2026-05-06 16:15 32.69286 -16.77973 175 ft 16 kts 267°
2026-05-06 16:15 32.69233 -16.78094 172 ft 18 kts 222°
2026-05-06 16:15 32.69146 -16.78195 168 ft 16 kts 226°
2026-05-06 16:15 32.69066 -16.78290 163 ft 17 kts 222°
2026-05-06 16:16 32.68977 -16.78383 159 ft 15 kts 205°
2026-05-06 16:16 32.68903 -16.78402 159 ft 10 kts 207°
2026-05-06 16:16 32.68876 -16.78447 159 ft 4 kts 267°
2026-05-06 16:16 32.68901 -16.78471 159 ft 6 kts 357°
2026-05-06 16:17 32.68930 -16.78451 159 ft 2 kts 49°
2026-05-06 16:17 32.68935 -16.78446 159 ft 0 kts 46°
2026-05-06 16:18 32.68941 -16.78438 159 ft 3 kts 46°
2026-05-06 16:18 32.69080 -16.78274 164 ft 61 kts 45°
2026-05-06 16:18 32.69536 -16.77739 180 ft 121 kts 44°
2026-05-06 16:18 32.70232 -16.76924 337 ft 151 kts 41°
2026-05-06 16:19 32.70896 -16.76020 1004 ft 143 kts 51°
2026-05-06 16:19 32.71220 -16.74865 1424 ft 156 kts 90°
2026-05-06 16:19 32.70850 -16.73659 1906 ft 166 kts 115°
2026-05-06 16:19 32.70371 -16.72373 2348 ft 176 kts 108°
2026-05-06 16:20 32.69914 -16.70936 2881 ft 195 kts 109°
2026-05-06 16:20 32.69419 -16.69354 3592 ft 212 kts 106°
2026-05-06 16:20 32.68889 -16.67641 4331 ft 229 kts 106°
2026-05-06 16:20 32.68320 -16.65801 5010 ft 250 kts 107°
2026-05-06 16:21 32.67689 -16.63767 5594 ft 274 kts 108°
2026-05-06 16:21 32.67010 -16.61582 5943 ft 285 kts 109°
2026-05-06 16:21 32.66316 -16.59366 6026 ft 284 kts 109°
2026-05-06 16:21 32.65714 -16.57156 6079 ft 284 kts 102°
2026-05-06 16:22 32.65633 -16.54828 6097 ft 282 kts 76°
2026-05-06 16:22 32.66425 -16.52739 6107 ft 275 kts 48°
2026-05-06 16:22 32.67761 -16.51113 6120 ft 274 kts 39°
2026-05-06 16:22 32.69147 -16.49605 6117 ft 274 kts 39°
2026-05-06 16:23 32.70547 -16.48067 6117 ft 274 kts 40°
2026-05-06 16:23 32.71933 -16.46513 6119 ft 273 kts 40°
2026-05-06 16:23 32.73313 -16.44952 6527 ft 276 kts 41°
2026-05-06 16:23 32.74704 -16.43377 7458 ft 279 kts 40°
2026-05-06 16:24 32.76109 -16.41783 8526 ft 279 kts 40°
2026-05-06 16:24 32.77524 -16.40180 9609 ft 281 kts 40°
2026-05-06 16:24 32.78945 -16.38564 10478 ft 290 kts 40°
2026-05-06 16:24 32.80463 -16.36832 10884 ft 314 kts 41°
2026-05-06 16:25 32.82102 -16.34957 11237 ft 338 kts 41°
2026-05-06 16:25 32.83824 -16.32977 11611 ft 358 kts 41°
2026-05-06 16:25 32.85642 -16.30900 12327 ft 365 kts 41°
2026-05-06 16:25 32.87485 -16.28789 13142 ft 371 kts 41°
2026-05-06 16:26 32.89351 -16.26632 13940 ft 376 kts 41°
2026-05-06 16:26 32.91249 -16.24445 14659 ft 380 kts 41°
2026-05-06 16:26 32.93166 -16.22243 15370 ft 385 kts 41°
2026-05-06 16:26 32.95079 -16.20044 16050 ft 389 kts 41°
2026-05-06 16:27 32.97040 -16.17792 16735 ft 393 kts 41°
2026-05-06 16:27 32.99028 -16.15507 17436 ft 396 kts 41°
2026-05-06 16:27 33.00993 -16.13242 18105 ft 400 kts 40°
2026-05-06 16:27 33.03005 -16.10926 18722 ft 404 kts 40°
2026-05-06 16:28 33.05030 -16.08591 19331 ft 407 kts 40°
2026-05-06 16:28 33.07071 -16.06238 19950 ft 409 kts 40°
2026-05-06 16:28 33.09127 -16.03865 20572 ft 412 kts 40°
2026-05-06 16:28 33.11198 -16.01469 21197 ft 414 kts 40°
2026-05-06 16:29 33.13273 -15.99063 21835 ft 417 kts 40°
2026-05-06 16:29 33.15348 -15.96664 22354 ft 422 kts 39°
2026-05-06 16:29 33.17479 -15.94203 22911 ft 427 kts 39°
2026-05-06 16:29 33.19628 -15.91719 23516 ft 430 kts 39°
2026-05-06 16:30 33.21784 -15.89222 24048 ft 432 kts 39°
2026-05-06 16:30 33.23213 -15.87564 24391 ft 434 kts 39°
2026-05-06 16:30 33.26094 -15.84215 25080 ft 436 kts 39°
2026-05-06 16:30 33.28278 -15.81676 25590 ft 437 kts 39°
2026-05-06 16:31 33.30470 -15.79129 26092 ft 439 kts 39°
2026-05-06 16:31 33.32671 -15.76568 26588 ft 441 kts 39°
2026-05-06 16:31 33.34842 -15.74038 27063 ft 442 kts 39°
2026-05-06 16:31 33.37056 -15.71461 27528 ft 444 kts 39°
2026-05-06 16:32 33.39271 -15.68878 27964 ft 446 kts 39°
2026-05-06 16:32 33.41495 -15.66285 28457 ft 445 kts 38°
2026-05-06 16:32 33.43735 -15.63742 29086 ft 442 kts 37°
2026-05-06 16:32 33.45987 -15.61210 29558 ft 442 kts 37°
2026-05-06 16:33 33.48199 -15.58728 30114 ft 440 kts 37°
2026-05-06 16:33 33.50433 -15.56218 30590 ft 439 kts 37°
2026-05-06 16:33 33.52662 -15.53710 30977 ft 439 kts 37°
2026-05-06 16:34 33.57118 -15.48683 31760 ft 439 kts 37°
2026-05-06 16:34 33.59350 -15.46168 32156 ft 439 kts 37°
2026-05-06 16:34 33.61579 -15.43652 32534 ft 440 kts 38°
2026-05-06 16:34 33.63787 -15.41157 32906 ft 440 kts 38°
2026-05-06 16:35 33.66019 -15.38630 33277 ft 440 kts 38°
2026-05-06 16:35 33.68246 -15.36106 33594 ft 441 kts 38°
2026-05-06 16:35 33.70499 -15.33559 33757 ft 446 kts 38°
2026-05-06 16:35 33.72745 -15.31016 33868 ft 451 kts 38°
2026-05-06 16:36 33.74851 -15.28611 33959 ft 455 kts 38°
2026-05-06 16:36 33.77513 -15.25578 34132 ft 457 kts 38°
2026-05-06 16:36 33.79831 -15.22953 34353 ft 456 kts 38°
2026-05-06 16:37 33.82140 -15.20336 34585 ft 455 kts 38°
2026-05-06 16:37 33.84444 -15.17720 34816 ft 454 kts 38°
2026-05-06 16:37 33.86710 -15.15141 35030 ft 453 kts 38°
2026-05-06 16:37 33.88996 -15.12532 35223 ft 452 kts 38°
2026-05-06 16:38 33.91273 -15.09917 35397 ft 451 kts 38°
2026-05-06 16:38 33.93543 -15.07305 35562 ft 451 kts 37°
2026-05-06 16:38 33.95825 -15.04705 35721 ft 450 kts 37°
2026-05-06 16:38 33.98077 -15.02130 35872 ft 450 kts 38°
2026-05-06 16:39 34.00342 -14.99520 36014 ft 449 kts 38°
2026-05-06 16:39 34.02603 -14.96920 36134 ft 449 kts 37°
2026-05-06 16:39 34.04863 -14.94325 36139 ft 448 kts 37°
2026-05-06 16:40 34.09407 -14.89112 36107 ft 451 kts 37°
2026-05-06 16:40 34.13933 -14.83900 36095 ft 451 kts 38°
2026-05-06 16:41 34.18488 -14.78659 36085 ft 451 kts 38°
2026-05-06 16:41 34.23051 -14.73440 36073 ft 451 kts 37°
2026-05-06 16:42 34.27578 -14.68197 36093 ft 451 kts 38°
2026-05-06 16:42 34.32092 -14.62997 36091 ft 451 kts 38°
2026-05-06 16:43 34.36637 -14.57715 36078 ft 451 kts 38°
2026-05-06 16:43 34.41166 -14.52445 36104 ft 454 kts 38°
2026-05-06 16:44 34.45734 -14.47136 36082 ft 454 kts 38°
2026-05-06 16:44 34.50287 -14.41871 36078 ft 454 kts 38°
2026-05-06 16:45 34.54838 -14.36590 36079 ft 454 kts 38°
2026-05-06 16:45 34.59396 -14.31270 36077 ft 454 kts 38°
2026-05-06 16:46 34.63933 -14.25974 36077 ft 454 kts 38°
2026-05-06 16:46 34.68497 -14.20634 36099 ft 454 kts 38°
2026-05-06 16:47 34.73048 -14.15295 36085 ft 457 kts 38°
2026-05-06 16:47 34.77633 -14.09903 36074 ft 457 kts 38°
2026-05-06 16:48 34.82211 -14.04515 36070 ft 457 kts 38°
2026-05-06 16:48 34.86764 -13.99153 36068 ft 457 kts 38°
2026-05-06 16:49 34.91314 -13.93780 36072 ft 457 kts 38°
2026-05-06 16:49 34.95890 -13.88367 36095 ft 457 kts 38°
2026-05-06 16:50 35.00452 -13.82966 36083 ft 459 kts 39°
2026-05-06 16:50 35.05029 -13.77534 36068 ft 461 kts 39°
2026-05-06 16:51 35.09632 -13.72063 36065 ft 461 kts 39°
2026-05-06 16:51 35.14210 -13.66614 36064 ft 461 kts 39°
2026-05-06 16:52 35.18777 -13.61162 36066 ft 461 kts 39°
2026-05-06 16:52 35.23370 -13.55678 36066 ft 461 kts 39°
2026-05-06 16:53 35.27196 -13.51102 36062 ft 461 kts 39°
2026-05-06 16:53 35.31784 -13.45605 36066 ft 466 kts 39°
2026-05-06 16:54 35.36428 -13.40035 36060 ft 467 kts 39°
2026-05-06 16:54 35.41065 -13.34459 36059 ft 467 kts 39°
2026-05-06 16:55 35.45706 -13.28866 36059 ft 467 kts 39°
2026-05-06 16:55 35.50310 -13.23317 36059 ft 467 kts 39°
2026-05-06 16:56 35.54940 -13.17722 36059 ft 464 kts 39°
2026-05-06 16:56 35.59518 -13.12180 36074 ft 465 kts 39°
2026-05-06 16:57 35.64167 -13.06546 36056 ft 468 kts 39°
2026-05-06 16:57 35.68788 -13.00937 36050 ft 468 kts 39°
2026-05-06 16:58 35.73434 -12.95285 36051 ft 468 kts 39°
2026-05-06 16:58 35.78074 -12.89630 36050 ft 469 kts 39°
2026-05-06 16:59 35.82681 -12.84001 36061 ft 468 kts 40°
2026-05-06 16:59 35.87300 -12.78353 36057 ft 467 kts 40°
2026-05-06 17:00 35.91920 -12.72696 36050 ft 471 kts 40°
2026-05-06 17:00 35.96587 -12.66963 36055 ft 472 kts 40°
2026-05-06 17:01 36.01216 -12.61272 36054 ft 472 kts 40°
2026-05-06 17:01 36.05893 -12.55546 36049 ft 471 kts 39°
2026-05-06 17:02 36.10647 -12.50026 36054 ft 470 kts 38°
2026-05-06 17:02 36.15433 -12.44475 36040 ft 470 kts 38°
2026-05-06 17:03 36.20189 -12.38948 36048 ft 472 kts 39°
2026-05-06 17:03 36.24996 -12.33352 36039 ft 474 kts 39°
2026-05-06 17:04 36.29769 -12.27786 36036 ft 474 kts 39°
2026-05-06 17:04 36.34555 -12.22192 36038 ft 474 kts 39°
2026-05-06 17:05 36.39360 -12.16553 36051 ft 474 kts 39°
2026-05-06 17:05 36.44116 -12.10935 36041 ft 473 kts 39°
2026-05-06 17:06 36.48919 -12.05316 36041 ft 473 kts 39°
2026-05-06 17:06 36.53710 -11.99648 36040 ft 476 kts 39°
2026-05-06 17:07 36.58519 -11.94023 36037 ft 476 kts 39°
2026-05-06 17:07 36.63347 -11.88344 36032 ft 477 kts 39°
2026-05-06 17:08 36.68135 -11.82680 36037 ft 477 kts 39°
2026-05-06 17:08 36.72957 -11.76958 36034 ft 477 kts 39°
2026-05-06 17:09 36.77754 -11.71259 36030 ft 477 kts 39°
2026-05-06 17:09 36.82581 -11.65520 36030 ft 477 kts 39°
2026-05-06 17:10 36.87359 -11.59825 36026 ft 477 kts 39°
2026-05-06 17:10 36.92178 -11.54072 36038 ft 477 kts 39°
2026-05-06 17:11 36.96962 -11.48350 36031 ft 477 kts 39°
2026-05-06 17:11 37.01748 -11.42618 36029 ft 477 kts 39°
2026-05-06 17:12 37.06551 -11.36851 36026 ft 477 kts 40°
2026-05-06 17:12 37.11351 -11.31077 36040 ft 478 kts 40°
2026-05-06 17:13 37.16131 -11.25285 36028 ft 481 kts 40°
2026-05-06 17:13 37.20959 -11.19419 36031 ft 482 kts 40°
2026-05-06 17:14 37.25758 -11.13607 36023 ft 482 kts 40°
2026-05-06 17:14 37.30586 -11.07753 36021 ft 482 kts 40°
2026-05-06 17:15 37.35396 -11.01921 36021 ft 482 kts 40°
2026-05-06 17:15 37.40224 -10.96056 36022 ft 482 kts 40°
2026-05-06 17:16 37.45041 -10.90204 36045 ft 483 kts 40°
2026-05-06 17:16 37.49896 -10.84296 36017 ft 485 kts 40°
2026-05-06 17:17 37.54725 -10.78404 36013 ft 485 kts 41°
2026-05-06 17:17 37.59574 -10.72438 36012 ft 485 kts 41°
2026-05-06 17:18 37.64347 -10.66576 35430 ft 471 kts 41°
2026-05-06 17:18 37.66672 -10.63706 34573 ft 474 kts 41°
2026-05-06 17:18 37.69054 -10.60768 33556 ft 478 kts 41°
2026-05-06 17:18 37.71455 -10.57807 32410 ft 484 kts 41°
2026-05-06 17:19 37.73844 -10.54849 31295 ft 490 kts 42°
2026-05-06 17:19 37.76312 -10.51808 30109 ft 497 kts 42°
2026-05-06 17:19 37.78794 -10.48750 29110 ft 496 kts 42°
2026-05-06 17:19 37.81232 -10.45730 28661 ft 483 kts 43°
2026-05-06 17:20 37.83572 -10.42817 28290 ft 470 kts 43°
2026-05-06 17:20 37.85876 -10.39953 27929 ft 457 kts 42°
2026-05-06 17:20 37.88120 -10.37157 27602 ft 445 kts 42°
2026-05-06 17:20 37.90310 -10.34437 27096 ft 438 kts 42°
2026-05-06 17:21 37.92485 -10.31747 26521 ft 433 kts 42°
2026-05-06 17:21 37.94609 -10.29116 25954 ft 429 kts 42°
2026-05-06 17:21 37.96738 -10.26470 25391 ft 425 kts 43°
2026-05-06 17:21 37.98839 -10.23853 24852 ft 421 kts 43°
2026-05-06 17:22 38.00920 -10.21272 24326 ft 416 kts 42°
2026-05-06 17:22 38.02966 -10.18743 23808 ft 413 kts 43°
2026-05-06 17:22 38.05014 -10.16202 23232 ft 409 kts 43°
2026-05-06 17:22 38.07046 -10.13670 22630 ft 405 kts 43°
2026-05-06 17:23 38.09022 -10.11204 22058 ft 401 kts 43°
2026-05-06 17:23 38.11004 -10.08719 21487 ft 397 kts 43°
2026-05-06 17:23 38.12957 -10.06269 20930 ft 393 kts 43°
2026-05-06 17:23 38.14896 -10.03833 20379 ft 389 kts 44°
2026-05-06 17:24 38.16792 -10.01442 19846 ft 386 kts 44°
2026-05-06 17:24 38.18793 -9.99183 19314 ft 381 kts 35°
2026-05-06 17:24 38.20930 -9.97176 18716 ft 380 kts 35°
2026-05-06 17:24 38.23070 -9.95178 18044 ft 382 kts 35°
2026-05-06 17:25 38.25206 -9.93188 17436 ft 379 kts 35°
2026-05-06 17:25 38.27304 -9.91230 16850 ft 376 kts 35°
2026-05-06 17:25 38.29405 -9.89278 16347 ft 371 kts 35°
2026-05-06 17:25 38.31480 -9.87331 15776 ft 369 kts 35°
2026-05-06 17:26 38.33532 -9.85403 15287 ft 364 kts 35°
2026-05-06 17:26 38.35544 -9.83515 14790 ft 361 kts 34°
2026-05-06 17:26 38.37566 -9.81625 14285 ft 357 kts 35°
2026-05-06 17:26 38.39564 -9.79752 13789 ft 355 kts 35°
2026-05-06 17:27 38.41556 -9.77907 13254 ft 351 kts 35°
2026-05-06 17:27 38.43502 -9.76100 12767 ft 347 kts 34°
2026-05-06 17:27 38.45446 -9.74286 12280 ft 343 kts 35°
2026-05-06 17:27 38.47364 -9.72491 11801 ft 339 kts 35°
2026-05-06 17:28 38.49229 -9.70740 11328 ft 336 kts 35°
2026-05-06 17:28 38.51114 -9.68969 10855 ft 333 kts 35°
2026-05-06 17:28 38.52973 -9.67217 10391 ft 329 kts 35°
2026-05-06 17:28 38.54662 -9.65292 10121 ft 321 kts 51°
2026-05-06 17:29 38.55592 -9.62801 9924 ft 311 kts 77°
2026-05-06 17:29 38.55743 -9.60104 9775 ft 299 kts 90°
2026-05-06 17:29 38.55733 -9.57493 9622 ft 287 kts 90°
2026-05-06 17:29 38.55738 -9.54988 9488 ft 276 kts 89°
2026-05-06 17:30 38.55632 -9.52594 9323 ft 265 kts 103°
2026-05-06 17:30 38.54860 -9.50536 9043 ft 259 kts 127°
2026-05-06 17:30 38.53710 -9.48734 8624 ft 260 kts 130°
2026-05-06 17:30 38.52570 -9.47014 8311 ft 257 kts 130°
2026-05-06 17:31 38.51431 -9.45265 7975 ft 255 kts 130°
2026-05-06 17:31 38.50312 -9.43519 7661 ft 252 kts 128°
2026-05-06 17:31 38.49307 -9.41625 7341 ft 269 kts 125°
2026-05-06 17:31 38.48099 -9.39751 7063 ft 277 kts 138°
2026-05-06 17:32 38.46448 -9.38474 6990 ft 277 kts 156°
2026-05-06 17:32 38.44740 -9.37400 6994 ft 277 kts 147°
2026-05-06 17:32 38.43320 -9.35775 6733 ft 275 kts 126°
2026-05-06 17:32 38.42541 -9.33551 6197 ft 278 kts 101°
2026-05-06 17:33 38.42538 -9.31099 5729 ft 277 kts 77°
2026-05-06 17:33 38.43276 -9.28889 5302 ft 274 kts 53°
2026-05-06 17:33 38.44616 -9.27244 4894 ft 269 kts 30°
2026-05-06 17:33 38.46326 -9.26382 4513 ft 262 kts
2026-05-06 17:34 38.48105 -9.26386 4319 ft 249 kts 348°
2026-05-06 17:34 38.49747 -9.26908 4200 ft 237 kts 341°
2026-05-06 17:34 38.51297 -9.27425 4079 ft 227 kts 351°
2026-05-06 17:34 38.52812 -9.27182 3993 ft 217 kts 16°
2026-05-06 17:35 38.54192 -9.26449 3985 ft 212 kts 21°
2026-05-06 17:35 38.55548 -9.25692 3998 ft 212 kts 19°
2026-05-06 17:35 38.56896 -9.24955 4004 ft 211 kts 19°
2026-05-06 17:36 38.59601 -9.23455 3991 ft 212 kts 21°
2026-05-06 17:36 38.60945 -9.22664 4022 ft 211 kts 21°
2026-05-06 17:36 38.61354 -9.22419 4026 ft 213 kts 23°
2026-05-06 17:36 38.61576 -9.22285 4034 ft 215 kts 22°
2026-05-06 17:37 38.62727 -9.21575 4076 ft 215 kts 24°
2026-05-06 17:37 38.64078 -9.20826 4036 ft 204 kts 17°
2026-05-06 17:37 38.64816 -9.20499 4019 ft 195 kts 15°
2026-05-06 17:37 38.65845 -9.20042 4096 ft 174 kts 17°
2026-05-06 17:38 38.66928 -9.19520 4043 ft 157 kts 18°
2026-05-06 17:38 38.67902 -9.19042 3774 ft 146 kts 17°
2026-05-06 17:38 38.68780 -9.18559 3328 ft 134 kts 18°
2026-05-06 17:38 38.69589 -9.18032 2891 ft 127 kts 21°
2026-05-06 17:39 38.70372 -9.17516 2502 ft 127 kts 18°
2026-05-06 17:39 38.71198 -9.17118 2160 ft 123 kts 14°
2026-05-06 17:39 38.72000 -9.16756 1760 ft 123 kts 14°
2026-05-06 17:39 38.72805 -9.16402 1419 ft 124 kts 13°
2026-05-06 17:40 38.73613 -9.16002 1109 ft 126 kts 17°
2026-05-06 17:40 38.74408 -9.15515 920 ft 126 kts 19°
2026-05-06 17:40 38.75214 -9.15123 725 ft 126 kts 15°
2026-05-06 17:40 38.76031 -9.14698 490 ft 127 kts 16°
2026-05-06 17:41 38.76854 -9.14261 373 ft 127 kts 13°
2026-05-06 17:41 38.77592 -9.13874 371 ft 95 kts 18°
2026-05-06 17:41 38.78011 -9.13658 373 ft 44 kts 25°
2026-05-06 17:41 38.78237 -9.13523 371 ft 34 kts 35°
2026-05-06 17:42 38.78363 -9.13366 368 ft 12 kts 50°
2026-05-06 17:42 38.78347 -9.13266 368 ft 14 kts 163°
2026-05-06 17:42 38.78250 -9.13300 365 ft 16 kts 202°
2026-05-06 17:42 38.78143 -9.13356 364 ft 18 kts 202°
2026-05-06 17:43 38.78040 -9.13411 367 ft 14 kts 202°
2026-05-06 17:43 38.78005 -9.13430 365 ft 15 kts 202°
2026-05-06 17:43 38.77924 -9.13397 359 ft 16 kts 164°
2026-05-06 17:44 38.77854 -9.13372 354 ft 17 kts 164°
2026-05-06 17:44 38.77737 -9.13335 348 ft 17 kts 167°
2026-05-06 17:44 38.77622 -9.13318 351 ft 16 kts 180°
2026-05-06 17:44 38.77541 -9.13309 343 ft 13 kts 169°
2026-05-06 17:45 38.77446 -9.13286 343 ft 15 kts 169°
2026-05-06 17:45 38.77331 -9.13259 350 ft 18 kts 169°
2026-05-06 17:45 38.77248 -9.13238 348 ft 11 kts 169°
2026-05-06 17:45 38.77195 -9.13225 352 ft 6 kts 168°
2026-05-06 17:46 38.77158 -9.13215 346 ft 0 kts 165°
2026-05-06 17:46 38.77152 -9.13201 345 ft 3 kts 106°
2026-05-06 17:46 38.77153 -9.13165 347 ft 5 kts 77°
2026-05-06 17:46 38.77159 -9.13133 348 ft 0 kts 77°
2026-05-06 17:47 38.77160 -9.13129 349 ft 0 kts 77°
2026-05-06 17:47 38.77160 -9.13130 349 ft 0 kts 77°